Volver al catálogo

STARLINK-35428

ActivoComunicacionesVLEO
NORAD 66115·PAYLOAD·🇺🇸 United States

Lanzado Oct 22, 2025 desde Vandenberg Space Force Base

Loading…

Próximos Pases (próximas 24 horas)

TLE

ActualizadoSource: CelesTrak SupGP

Época: Sep 15, 2026, 03:15 UTC

1 66115C 25237B   26258.13590278 -.00047205  00000+0 -13946-2 0  2588
2 66115  53.1582 238.4726 0001291  86.1601 232.4318 15.34415387    17

Sigue STARLINK-35428 en tiempo real con AllMySat

Download on the App Store